Theta_e
305 305 307 310 310 309 309 309 311 310 310 310 311 312 313 313 307 309 310 311 314 310 312 314 316 314 315 315 316 310 312 312 316 316 315 313 314 316 317 349 343 346 346 341 347
304 305 306 309 310 310 310 310 311 311 311 310 311 312 313 310 310 315 318 316 313 315 315 315 312 313 312 315 313 311 311 314 313 315 316 314 316 316 317 323 339 339 337 344 344
304 304 305 308 310 310 311 312 311 311 311 311 311 312 312 307 315 321 317 315 314 315 317 315 312 312 314 313 314 312 313 313 314 314 314 315 314 317 318 319 319 336 336 340 340
303 304 304 306 310 310 311 312 312 311 311 311 312 312 309 313 316 321 318 315 315 317 314 314 311 312 313 315 312 315 313 314 313 315 314 315 315 317 317 317 318 318 333 338 339
304 304 304 305 309 311 311 311 312 312 310 311 312 313 313 313 313 317 316 315 316 315 315 313 313 313 315 314 313 314 314 313 313 310 311 312 313 315 317 317 315 337 335 337 337
304 304 304 304 308 311 311 312 312 312 308 310 311 310 314 312 316 319 316 315 315 315 314 311 312 313 315 313 312 312 312 312 311 312 311 314 314 314 316 316 318 337 336 333 335
304 304 304 305 306 310 312 313 314 315 307 308 310 314 316 310 318 320 318 318 314 314 311 312 313 315 314 313 312 314 314 311 313 313 314 313 314 315 315 315 315 325 331 337 338
305 304 305 305 306 310 312 315 316 317 307 307 308 314 310 315 321 318 319 318 319 314 314 316 314 313 314 313 312 313 309 311 312 312 314 315 313 313 312 313 314 314 312 316 338
305 305 305 305 307 311 313 316 319 316 310 308 319 319 321 322 321 320 318 316 317 318 317 316 315 312 311 312 311 309 312 313 312 312 315 316 314 315 314 312 313 313 325 333 343
306 305 305 306 307 312 315 316 318 319 320 318 318 316 318 320 321 320 318 317 318 315 314 314 309 311 308 309 313 314 313 312 312 313 312 312 312 314 315 312 313 314 336 343 344
306 306 306 306 307 314 318 315 309 311 322 317 318 322 321 321 319 319 318 318 317 314 314 313 313 313 313 312 312 313 313 313 313 314 314 313 313 315 314 313 312 316 334 341 343
306 306 305 306 308 318 316 315 315 315 314 315 318 321 320 320 317 317 317 316 317 317 316 314 314 315 314 314 314 313 313 313 313 314 312 315 315 315 316 316 315 325 333 335 334
306 306 306 306 311 317 316 317 316 315 312 315 317 318 316 317 317 317 316 316 316 316 316 316 316 316 317 317 317 316 315 316 316 317 316 316 314 315 315 318 322 325 333 334 335
306 305 305 306 315 314 316 317 315 316 318 322 319 317 317 316 317 317 316 316 317 317 316 316 315 317 316 317 317 318 317 316 318 317 317 316 318 314 317 323 326 324 327 338 341
306 306 306 306 311 314 317 316 315 316 320 322 317 317 314 315 315 318 317 317 317 317 315 317 316 316 317 319 320 320 319 318 318 317 316 316 315 314 327 328 328 327 337 336 340
307 307 308 309 310 315 315 316 317 322 324 318 315 315 314 314 314 317 317 314 315 316 315 316 315 317 319 318 320 319 318 317 314 313 318 316 315 314 330 328 328 327 334 335 335
311 311 311 310 310 314 316 314 320 324 318 316 315 315 313 314 315 317 316 315 316 317 317 316 318 316 316 318 317 315 317 320 320 319 320 320 319 329 328 325 325 326 326 329 332
313 317 313 315 315 316 315 317 325 318 315 315 314 315 316 315 315 316 315 316 315 315 316 318 318 316 317 319 318 317 318 319 325 325 323 320 328 333 326 323 323 323 322 322 321
316 319 319 319 319 317 313 320 320 315 314 314 314 316 316 316 316 315 316 316 315 314 317 316 317 315 316 317 318 318 320 319 321 323 325 322 331 330 329 325 323 323 322 322 320
315 317 316 315 318 317 316 321 315 315 315 314 316 315 315 316 316 315 316 315 314 314 313 315 315 315 316 316 317 321 319 322 319 322 324 326 325 331 333 327 323 322 322 321 321
314 312 317 317 317 312 318 320 315 315 315 315 315 315 316 316 316 315 316 315 314 313 313 313 313 313 313 315 318 319 322 322 319 324 329 326 325 330 331 328 324 322 321 320 320
309 314 318 316 313 309 313 314 315 315 314 314 313 315 315 314 315 315 316 316 313 312 314 311 311 312 313 314 320 320 323 320 318 318 323 323 323 324 327 326 325 323 322 322 322
307 309 317 315 313 313 313 315 316 315 314 314 314 314 313 314 314 315 316 315 314 313 312 310 309 312 312 309 311 317 322 322 318 317 322 327 322 324 324 327 325 321 320 319 320
309 312 308 307 307 312 314 316 317 316 315 313 313 313 314 314 313 315 315 316 315 316 317 310 308 311 314 313 312 316 316 320 318 319 318 322 322 320 324 323 325 323 320 318 321
306 309 309 310 310 312 313 315 317 317 313 312 313 314 314 315 314 315 314 314 315 314 312 308 311 311 311 313 316 316 316 316 321 319 321 319 319 318 320 322 324 322 322 321 322
309 309 307 308 309 312 311 315 317 317 314 314 313 313 312 312 313 314 314 313 313 312 311 308 313 316 317 316 315 315 312 313 314 315 317 318 318 316 316 320 323 321 321 321 319
306 307 306 308 309 312 313 315 316 313 313 313 312 311 312 313 312 311 309 309 310 311 309 309 309 309 312 314 313 312 313 314 316 316 316 311 312 314 319 322 322 320 313 312 311
Wind_Speed
24 24 23 21 21 21 21 19 16 13 11 10 9 9 10 14 14 10 6 3 3 9 5 4 2 2 1 1 2 4 4 1 3 2 8 6 8 5 3 4 1 2 2 1 21
24 24 23 21 21 21 21 19 16 14 11 9 8 7 8 12 12 9 2 4 8 6 3 1 3 3 3 1 1 4 4 7 7 3 6 9 3 6 5 4 4 4 2 12 24
24 24 24 20 20 21 21 18 17 13 11 10 8 6 6 8 3 4 6 6 11 9 1 4 3 3 3 2 1 3 5 5 5 7 4 7 10 2 2 0 4 6 4 6 14
26 25 24 21 19 18 20 18 17 16 12 10 8 4 3 3 3 2 5 4 13 10 6 3 3 3 2 1 1 1 6 3 6 2 3 5 5 5 5 8 5 8 5 5 9
27 25 25 22 17 17 17 19 17 16 13 9 5 2 2 2 6 2 3 5 13 10 6 3 3 4 1 2 2 3 5 4 5 8 7 3 8 7 6 5 6 2 10 8 8
27 26 27 24 17 16 17 19 16 14 12 7 2 2 2 2 5 1 2 6 6 9 6 5 5 6 1 2 3 3 5 6 6 6 4 3 5 7 8 7 6 6 9 10 7
28 28 28 26 19 16 18 21 12 10 10 5 3 3 2 7 4 3 5 0 5 7 4 7 5 2 1 5 2 2 6 6 3 2 5 3 8 4 8 2 8 8 8 9 11
30 29 29 25 20 18 20 22 6 5 8 6 4 3 5 2 7 11 11 9 9 9 5 2 6 2 1 2 8 5 5 5 6 6 5 4 8 12 12 5 11 10 7 9 9
31 29 29 25 20 19 20 17 6 2 5 4 4 3 6 9 5 5 8 3 1 7 5 5 3 3 6 4 5 7 2 4 10 5 3 2 10 13 11 7 13 10 9 9 7
32 30 27 25 16 17 20 9 5 3 2 1 2 3 3 4 4 1 3 3 3 4 4 6 6 4 4 5 2 4 4 4 6 6 6 7 10 11 14 10 15 3 7 7 8
33 31 26 24 15 12 15 2 5 3 1 4 4 3 5 7 4 1 2 5 4 7 3 4 5 3 7 5 5 3 3 5 12 15 3 10 6 13 11 6 7 7 8 8 9
34 30 26 22 12 6 10 4 2 7 6 5 5 5 13 4 3 1 3 4 4 1 2 6 3 8 4 5 5 5 5 9 8 11 4 9 10 7 5 5 4 9 10 9 5
35 29 25 22 4 3 3 6 17 5 2 7 4 4 5 8 4 5 5 3 3 1 2 4 8 4 2 6 3 3 4 5 7 11 3 4 7 6 5 10 13 8 3 6 6
35 28 24 19 3 7 2 14 17 3 4 4 3 4 2 2 2 5 9 5 1 4 3 4 4 3 7 4 1 2 5 7 6 3 6 2 9 5 8 5 14 12 8 8 6
35 30 21 10 5 1 7 17 11 3 3 2 1 1 4 3 3 3 2 3 3 3 5 5 5 7 6 5 4 3 9 6 5 5 3 2 1 5 7 7 13 11 9 10 11
36 27 14 2 3 4 14 15 2 4 1 2 3 4 4 4 7 2 4 8 4 4 4 4 3 5 4 3 3 8 7 5 5 2 4 6 3 4 4 6 7 9 11 10 12
38 14 6 1 0 8 15 4 4 4 4 5 3 4 3 5 7 5 4 7 3 4 5 6 3 4 5 5 8 12 8 5 5 4 5 6 3 2 6 5 6 6 11 11 11
27 8 2 3 6 12 7 5 2 3 3 3 4 4 5 7 4 7 4 3 7 5 3 3 6 5 6 4 4 5 4 4 5 2 5 5 4 3 7 5 7 8 13 15 15
16 7 4 8 7 4 5 5 2 2 2 4 4 6 5 5 4 4 4 3 2 2 5 3 4 5 5 3 1 4 2 1 1 2 3 3 2 3 6 4 6 12 15 14 13
11 9 6 16 2 5 5 2 0 1 2 4 3 4 4 5 4 5 2 1 3 2 3 4 3 2 5 5 4 3 2 1 3 1 4 4 4 4 10 7 5 11 12 8 12
7 4 12 15 3 5 3 2 1 3 2 3 2 2 2 2 1 3 3 0 3 2 3 3 3 5 3 4 4 4 3 5 3 2 2 2 4 6 6 9 8 10 10 8 12
6 3 17 11 4 2 2 5 6 1 5 3 4 3 2 2 1 1 1 3 1 2 2 1 4 1 2 5 3 3 2 3 4 3 2 2 6 3 4 4 9 5 9 10 15
2 3 10 9 3 4 6 4 4 6 3 1 2 1 1 2 2 1 3 5 7 2 4 4 2 3 6 5 4 2 3 3 3 2 6 2 4 5 4 7 6 7 7 5 9
3 4 4 5 1 3 5 4 5 5 2 2 2 3 3 1 1 2 3 4 4 3 7 4 3 7 6 6 3 5 4 6 6 4 4 6 6 7 5 6 10 14 11 9 5
4 1 2 4 4 4 2 3 5 5 3 4 3 3 3 0 3 2 2 4 3 6 3 4 4 4 5 6 6 8 8 7 9 11 8 12 10 11 11 15 15 13 12 12 9
2 3 4 3 4 4 4 4 3 6 2 3 3 5 4 5 7 6 3 2 5 2 2 2 2 2 4 7 7 8 12 12 13 12 10 14 15 16 4 11 10 12 11 11 12
4 3 3 3 4 2 0 4 6 9 3 1 3 4 4 5 5 5 7 6 6 7 5 4 5 2 4 3 6 7 3 5 1 2 3 4 5 2 3 9 12 9 7 7 7
Wind_Direction
0 358 355 356 355 353 348 342 327 316 309 306 306 307 314 316 315 301 254 221 62 196 191 314 344 39 151 45 132 121 60 134 237 246 276 293 27 296 267 145 298 228 228 355 127
0 359 355 355 357 354 350 346 340 329 316 307 304 303 313 319 319 269 328 286 190 131 181 137 58 47 23 322 73 97 123 214 202 241 286 306 20 339 24 20 309 302 100 131 131
359 359 358 354 356 357 356 356 356 345 327 310 299 301 315 329 307 255 344 332 190 180 173 102 100 75 41 353 214 150 188 213 234 247 251 282 310 196 174 281 266 264 226 156 136
359 357 358 356 357 0 2 2 359 352 340 320 301 293 326 347 147 233 336 346 158 164 168 91 71 76 70 252 310 303 244 218 278 302 326 268 284 276 207 209 210 254 132 163 166
358 356 357 356 358 1 1 356 350 351 343 330 310 294 40 356 256 328 345 89 155 158 165 127 119 124 183 234 325 200 280 296 273 287 241 266 249 237 249 228 236 238 136 206 176
358 356 356 357 355 358 356 353 346 351 352 348 338 148 75 347 339 244 147 127 166 172 174 159 179 198 207 251 149 217 265 283 279 281 255 228 266 138 265 267 170 171 228 172 165
358 355 356 357 354 355 353 348 344 353 4 15 122 87 73 228 21 201 191 40 198 179 150 198 194 111 109 313 246 280 336 342 323 25 307 280 334 251 244 294 271 203 224 230 152
358 355 355 355 354 353 351 349 1 14 28 66 87 26 248 252 302 256 233 276 246 232 242 259 211 163 188 334 6 15 49 8 291 329 309 86 277 281 276 249 251 246 200 244 167
357 354 352 352 355 349 350 357 20 64 54 92 24 40 299 313 274 298 234 229 219 234 271 264 108 81 24 54 9 6 284 320 324 301 340 28 291 285 291 241 250 246 162 183 158
356 353 351 349 350 348 348 19 34 76 59 17 306 355 306 304 260 296 131 133 51 83 24 45 45 48 39 58 259 289 333 301 273 279 339 306 268 290 290 243 233 177 155 166 167
354 351 348 349 341 351 356 17 16 356 159 205 229 240 269 300 289 38 104 84 53 49 50 10 58 281 256 201 208 247 238 257 278 282 260 274 277 288 309 298 239 174 166 189 176
352 350 344 347 336 13 34 62 339 287 315 246 233 258 267 245 306 332 142 84 83 53 59 13 307 260 241 237 229 231 262 280 284 275 152 287 288 285 302 304 266 169 161 177 152
352 349 343 345 329 25 20 30 357 329 103 299 216 217 243 143 213 222 131 127 121 158 126 154 248 351 295 307 297 268 217 265 253 305 255 267 303 329 344 32 20 2 16 137 155
351 350 343 346 128 344 317 347 346 328 69 285 284 276 121 126 318 189 179 135 113 206 183 218 287 13 332 314 3 300 295 265 266 347 291 121 286 307 350 353 12 358 13 12 32
351 345 336 334 303 253 326 334 336 95 66 188 223 237 6 113 253 240 134 68 181 196 90 264 305 348 38 331 325 270 315 285 261 246 302 66 59 253 353 333 354 333 56 46 59
349 340 333 4 271 323 334 330 83 46 136 57 43 5 25 9 351 22 67 40 57 75 17 269 1 48 345 324 93 307 341 8 25 92 268 337 195 270 345 331 331 343 52 60 80
349 346 348 241 86 337 336 34 41 115 339 344 344 358 55 339 359 29 69 37 58 43 2 342 3 329 31 24 354 6 34 348 327 353 247 334 16 292 352 353 347 341 50 49 58
354 12 29 319 318 326 356 54 94 56 28 343 353 4 76 15 13 4 115 78 18 52 78 56 327 29 353 63 280 284 134 165 276 274 274 341 320 342 89 70 57 52 69 56 57
4 28 20 9 334 1 67 61 199 32 340 3 6 51 1 358 39 45 50 112 43 9 113 61 280 337 53 336 333 308 49 206 144 313 347 237 139 201 160 117 86 72 67 60 51
353 341 26 353 334 35 70 197 283 6 43 57 71 57 33 346 37 31 10 293 135 33 138 195 304 26 301 14 19 56 116 15 14 314 288 304 286 295 181 161 136 76 72 57 57
11 37 1 350 302 44 97 277 15 4 85 82 130 27 62 31 16 338 1 317 181 136 85 126 123 292 21 0 311 350 21 54 97 161 230 293 272 6 290 171 191 123 101 81 51
3 41 352 9 47 21 36 314 292 187 37 48 95 87 106 42 358 320 355 328 197 124 97 54 137 107 252 299 11 94 134 127 122 249 256 290 261 160 100 190 254 192 160 164 120
26 275 353 27 69 350 318 318 15 15 3 47 117 128 173 187 322 229 44 9 6 97 165 180 31 27 351 346 356 9 202 167 103 67 223 226 264 191 156 134 232 226 216 192 141
36 356 332 32 44 66 356 296 325 322 269 107 136 77 52 311 261 284 0 3 6 53 68 92 150 161 199 215 179 286 238 215 170 178 209 223 281 284 193 187 179 209 207 202 173
30 328 185 313 339 343 278 293 320 324 37 31 61 111 144 268 345 250 345 333 21 6 63 96 202 190 241 239 241 251 272 249 200 231 219 253 230 253 223 198 206 196 197 203 208
47 18 353 291 312 333 2 351 324 328 238 256 175 168 183 174 197 209 201 212 230 20 89 31 258 193 260 256 260 272 275 265 265 243 241 248 258 250 267 187 169 191 192 189 196
23 37 102 292 338 15 229 341 310 346 340 234 155 140 163 224 200 211 207 209 208 182 173 173 158 105 265 272 312 293 232 259 169 34 291 248 268 134 101 154 169 162 143 142 126